Weather Roundup
Issued by NWS

Home | Current Version | Previous Version | Graphics & Text | Print | Product List | Glossary Off
Versions: 1 2 3 4 5 6 7 8 9 10 11 12 13 14 15 16 17 18 19 20 21 22 23 24 25 26 27 28 29 30 31 32 33 34 35 36 37 38 39 40 41 42 43 44 45 46 47 48 49 50

688
NZUS93 KARX 251710
HRRWXR

CURRENT HOURLY OBSERVATIONS ACROSS
MUCH OF THE UPPER MISSISSIPPI VALLEY
NATIONAL WEATHER SERVICE LA CROSSE WI
1200 PM CDT SAT MAR 25 2017


...SOUTHEAST MINNESOTA...


CITY           SKY/WX    TMP DP  RH WIND       PRES   REMARKS
ROCHESTER      CLOUDY    36  34  92 NE20      30.10R WCI  25
ROCHESTER/MAYO CLOUDY    37  34  88 NE8G17    30.12R WCI  31
WINONA         CLOUDY    37  34  87 E10       30.14F WCI  30
AUSTIN         CLOUDY    37  34  87 NE15G26   30.07F WCI  28
ALBERT LEA     CLOUDY    37  34  87 NE18G26   30.07F WCI  27
DODGE CENTER   CLOUDY    37  34  87 NE18      30.10S WCI  27
PRESTON        CLOUDY    35  32  90 NE13G18   30.09S WCI  26
OWATONNA       CLOUDY    37  34  87 NE16G23   30.12R WCI  28
FARIBAULT      CLOUDY    37  34  87 NE17      30.14R WCI  28
$$

...ELSEWHERE IN MINNESOTA...


CITY           SKY/WX    TMP DP  RH WIND       PRES   REMARKS
MINNEAPOLIS    CLOUDY    40  31  70 NE14      30.16F WCI  32
INTNL FALLS    CLOUDY    36  25  64 SE10      30.25S WCI  28
DULUTH         CLOUDY    33  30  88 E20G28    30.24F WCI  21
RED WING       CLOUDY    39  30  70 E13G20    30.14F WCI  32
REDWOOD FALLS  CLOUDY    39  34  82 NE12G20   30.12F WCI  32
MANKATO        CLOUDY    39  35  86 NE17      30.12R WCI  30
WORTHINGTON    CLOUDY    36  35  96 NE15      30.08S FOG     WCI  27
FAIRMONT       CLOUDY    38  35  89 NE15      30.09R WCI  29
$$

...SOUTHWEST WISCONSIN...


CITY           SKY/WX    TMP DP  RH WIND       PRES   REMARKS
LA CROSSE      CLOUDY    40  35  83 E15       30.12F WCI  32
PRAIRIE DU CHI CLOUDY    39  36  87 NE7G22    30.04F WCI  34
BOSCOBEL       CLOUDY    40  36  86 NE8G18    30.07S WCI  34
LONE ROCK      CLOUDY    40  36  86 NE15      30.08F WCI  32
PLATTEVILLE    CLOUDY    40  40 100 NE20G25   30.00F WCI  30
FORT MC COY    CLOUDY    37  34  90 NE12G22   30.14F WCI  29
CAMP DOUGLAS   CLOUDY    37  34  87 NE9G21    30.13F WCI  31
MAUSTON-NEW LI CLOUDY    37  35  91 NE8G16    30.13F FOG     WCI  31
VIROQUA        CLOUDY    36  36  99 NE17      30.08F WCI  26
WIS DELLS      CLOUDY    36  35  96 NE14G25   30.10S FOG     WCI  27
$$

...ELSEWHERE IN WISCONSIN...


CITY           SKY/WX    TMP DP  RH WIND       PRES   REMARKS
MILWAUKEE      CLOUDY    39  36  89 NE15      30.12F WCI  31
MADISON        LGT RAIN  38  36  92 NE16      30.08F WCI  29
GREEN BAY      CLOUDY    38  36  92 NE17      30.22F WCI  28
EAU CLAIRE     CLOUDY    39  32  76 E17       30.18S WCI  30
BLACK RVR FLS  CLOUDY    40  33  76 E15G22    30.15F WCI  31
MEDFORD        CLOUDY    35  32  87 E18       30.18S WCI  25
WAUSAU         CLOUDY    37  32  82 E15G22    30.19F WCI  28
WIS RAPIDS     CLOUDY    37  34  89 E15G25    30.18S WCI  28
MARSHFIELD     CLOUDY    37  32  82 E14       30.16S WCI  28
RICE LAKE      CLOUDY    37  31  81 NE5       30.21F WCI  33
$$

...NORTHEAST IOWA...


CITY           SKY/WX    TMP DP  RH WIND       PRES   REMARKS
WATERLOO       RAIN      38  36  92 NE14      30.00F FOG     WCI  30
DUBUQUE        LGT RAIN  39  38  96 NE21G32   29.97S FOG     WCI  29
DECORAH        CLOUDY    37  36  93 NE9G18    30.04F WCI  31
MASON CITY     CLOUDY    37  35  92 NE20      30.05S FOG     WCI  27
CHARLES CITY   CLOUDY    39  39 100 NE17G25   30.03F WCI  30
OELWEIN        LGT RAIN  39  39 100 NE17G24   29.99F WCI  30
$$

...ELSEWHERE IN IOWA...


CITY           SKY/WX    TMP DP  RH WIND       PRES   REMARKS
DES MOINES     LGT RAIN  41  38  89 NE17      29.95S FOG
IOWA CITY      LGT RAIN  43  40  89 NE12      29.95S FOG
FORT DODGE     CLOUDY    37  34  87 NE12G18   30.02F WCI  30
MARSHALLTOWN   LGT RAIN  39  38  96 NE18      29.96F FOG     WCI  30
CEDAR RAPIDS   LGT RAIN  40  40 100 NE14      29.94R FOG     WCI  32
$$

...NORTHERN ILLINOIS...


CITY           SKY/WX    TMP DP  RH WIND       PRES   REMARKS
CHICAGO-OHARE  LGT RAIN  42  39  89 NE16      30.04S
CHICAGO-MIDWAY CLOUDY    44  43  96 N10       30.03F
MOLINE         CLOUDY    45  42  89 E14       29.93S FOG
ROCKFORD       LGT RAIN  42  39  89 E20G26    30.03R FOG
PEORIA         PTSUNNY   64  56  75 S14       29.90S
$$

NOTE: "FAIR" INDICATES FEW OR NO CLOUDS BELOW 12,000 FEET WITH NO
SIGNIFICANT WEATHER AND/OR OBSTRUCTIONS TO VISIBILITY. WIND
SPEEDS ARE IN MILES-PER-HOUR.




USA.gov is the U.S. government's official web portal to all federal, state and local government web resources and services.